Regional Weather Roundup
Issued by NWS Newport/Morehead, NC

Current Version | Previous Version | Graphics & Text | Print | Product List | Glossary Off
Versions: 1 2 3 4 5 6 7 8 9 10 11 12 13 14 15 16 17 18 19 20 21 22 23 24 25 26 27 28 29 30 31 32 33 34 35 36 37 38 39 40 41 42 43 44 45 46 47 48 49 50

000
ASUS42 KMHX 021022
RWRMHX
WEATHER ROUNDUP FOR EASTERN NORTH CAROLINA
NATIONAL WEATHER SERVICE NEWPORT/MOREHEAD CITY NC
600 AM EDT THU OCT 02 2014

NOTE: "FAIR" INDICATES FEW OR NO CLOUDS BELOW 12,000 FEET
WITH NO SIGNIFICANT WEATHER AND/OR OBSTRUCTIONS TO VISIBILITY

NCZ015>017-031-032-045>047-102-103-021100-
NORTH COAST

CITY           SKY/WX    TMP DP  RH WIND       PRES   REMARKS
EDENTON        CLOUDY    62  62  98 CALM      30.08R
ELIZABETH CITY MOCLDY    61  61 100 CALM      30.07R
KITTY HAWK     MOSUNNY   67  61  82 CALM      30.05R
MANTEO         PTCLDY    64  61  89 N3        30.06R

$$

NCZ045>047-081-094-103-104-021100-
CENTRAL COAST

CITY           SKY/WX    TMP DP  RH WIND       PRES   REMARKS
FRISCO         CLEAR     65  62  90 NE3       30.06R
SWANQUARTER      N/A     63 N/A N/A N1        30.03S

$$

NCZ095-097-098-100-101-021100-
SOUTHERN COAST

CITY           SKY/WX    TMP DP  RH WIND       PRES   REMARKS
BEAUFORT       CLEAR     63  62  97 CALM      30.07R
CEDAR ISLAND     N/A     70 N/A N/A N3        30.09S
JACKSONVILLE   CLEAR     62  60  93 CALM      30.07R
NEWPORT        NOT AVBL
PINEY ISLAND   SUNNY     70  65  84 N3        30.06R HAZE
WILMINGTON     CLEAR     62  61  96 CALM      30.07R


$$

NCZ011>013-027>030-043-044-078>080-089-090>093-098-021100-
COASTAL PLAIN

CITY           SKY/WX    TMP DP  RH WIND       PRES   REMARKS
AHOSKIE        MOCLDY    61  60  97 CALM      30.09R FOG
CLINTON        PTCLDY    60  60 100 CALM      30.07S FOG
ELIZABETHTOWN  CLOUDY    61  61 100 CALM      30.06S FOG
GOLDSBORO      CLEAR     60  59  98 CALM      30.06R
GREENVILLE     RAIN      61  59  94 CALM      30.09R VSB 1
HAVELOCK       PTCLDY    62  61  96 CALM      30.08R FOG
KENANSVILLE    PTCLDY    57  57  99 CALM      30.08S FOG
KINSTON        FOG       59  59  99 CALM      30.08S VSB<1/4
NEW BERN       CLEAR     63  60  90 CALM      30.08S
RICHLANDS      CLEAR     59  55  88 CALM      30.08R
ROANOKE RAPIDS NOT AVBL
ROCKY MOUNT    FOG       60  59  96 CALM      30.08S VSB 3/4
WASHINGTON     PTCLDY    58  57  97 CALM      30.08S
WHITEVILLE     CLEAR     61  60  95 CALM      30.06S

$$

AMZ130-135-150-152-154-156-158-170-250-252-270-ANZ085-086-088-633-658-670-021100-
MARINE OBSERVATIONS

STATION/POSITION TIME  TEMP    WIND        PRES    WAVE   SWELL
                       AIR SEA DIR/SP/G            HT/PER HT/PER
                 (UTC) (F)     (DEG/KT/KT) (MB)    (FT/S) (FT/S)
CHESAPEAKE LIGHT 1000   68      10/  9/ 10 1018.6
BUOY 44014       1000   68 71  360/ 14/ 16 1016.7    5/ 7   3/ 7
DUCK             1000   69 73   10/ 10/ 11 1017.1
2E DUCK          1000                        N/A     3/ 7   2/13
OREGON INLET     1000   68 74  360/  6/  8 1017.7
BUOY 44095       1000      73                N/A     4/ 8   2/13
20E OREGON INLET NOT AVBL
HATTERAS CG      1000   70 74   10/  7/  8 1018.3
DIAMOND BUOY     1000   69     360/ 10/ 12 1017.5    3/ 7   2/ 7
CAPE LOOKOUT     1000   69      10/  5/  6 1017.9
BEAUFORT LAB     1000   67 75   30/  3/  4 1017.6
30 SE NEW RIVER  1000   74 79   40/  6/  8 1017.4    2/ 8   2/ 8
5 SE WRIGHTSVILL 1000   68 76  330/  8/ 10   N/A
BUOY 41002       0941   77 80   60/ 12/ 14 1016.0    3/ 7   2/ 7
BUOY 41004       1000   78 81   80/  8/ 10 1016.8    2/ 8   2/ 8

$$



USA.gov is the U.S. government's official web portal to all federal, state and local government web resources and services.